#timestamp,LO_Frequency,Hit,StdDev 
1542326415.6,286046998.0,N
1542326435.4,286046997.9,N
1542326455.3,286046998.8,N
1542326475.1,286046996.5,N
1542326476.0,286046996.5,N
1542326495.8,286046998.8,N
1542326515.7,286046999.2,N
1542326535.5,286046996.8,N
1542326555.3,286046998.9,N
1542326575.2,286046996.6,N
1542326595.0,286046996.9,N
1542326595.9,286046996.9,N
1542326615.8,286046996.8,N
1542326635.6,286046996.9,N
1542326655.4,286046994.9,Y
1542326675.3,286046998.3,P
1542326695.1,286046996.9,P
1542326715.9,286046999.2,N
1542326735.7,286046999.4,N
1542326755.5,286046996.8,Y
1542326775.4,286047000.6,P
1542326795.2,286047000.4,N
1542326815.0,286046998.7,N
1542326815.9,286046998.7,N
1542326835.8,286046998.9,N
1542326855.6,286046997.4,N
1542326875.5,286046999.2,N
1542326895.3,286046998.8,N
1542326915.1,286047000.7,N
1542326935.9,286047000.4,N
1542326955.7,286047000.4,N
1542326975.5,286047000.6,N
1542326995.4,286046998.7,N
1542327015.2,286046998.1,N
1542327035.1,286046999.2,N
1542327036.0,286046999.2,N
1542327055.8,286046996.9,Y
1542327075.6,286046997.6,P
1542327095.5,286046997.4,P
1542327115.3,286046997.4,P
1542327135.1,286046998.7,N
1542327155.9,286046997.2,Y
1542327175.7,286046998.1,P
1542327195.6,286046999.1,P
1542327215.4,286046996.8,P
1542327235.2,286046999.1,N
1542327255.1,286046996.5,Y
1542327256.0,286046996.5,P
1542327275.8,286046996.6,P
1542327295.7,286046997.7,N
1542327315.5,286046999.2,N
1542327335.3,286046997.9,N
1542327355.2,286046997.1,Y
1542327375.0,286047001.0,P
1542327375.9,286047001.0,N
1542327395.8,286047000.8,N
1542327415.6,286046998.5,N
1542327435.4,286046997.0,N
1542327455.3,286046999.5,N
1542327475.1,286046998.9,N
1542327495.8,286046998.7,N
1542327515.7,286046998.7,N
1542327535.5,286046999.2,N
1542327555.4,286046998.6,N
1542327575.2,286046999.6,N
1542327595.0,286046997.8,N
1542327595.9,286046997.8,N
1542327615.8,286046999.2,N
1542327635.6,286046996.6,N
1542327655.4,286046996.5,N
1542327675.3,286046999.1,N
1542327695.1,286046998.7,N
1542327715.9,286046999.1,N
1542327735.7,286046997.6,N
1542327755.5,286046997.4,N
1542327775.4,286046996.1,Y
1542327795.2,286046997.9,P
1542327815.0,286046995.3,P
1542327816.0,286046995.3,P
1542327835.8,286046995.6,N
1542327855.6,286046997.5,N
1542327875.5,286046996.6,N
1542327895.3,286046997.3,N
1542327915.1,286046996.6,N
1542327935.9,286046999.2,N
1542327955.7,286046997.4,N
1542327975.6,286046995.2,Y
1542327995.4,286046996.8,P
1542328015.2,286046995.2,P
1542328035.1,286046995.8,P
1542328036.0,286046995.8,Y
1542328055.8,286046999.1,P
1542328075.7,286047000.6,N
1542328095.5,286047000.4,N
1542328115.3,286047000.4,N
1542328135.2,286047000.6,N
1542328155.0,286047002.8,N
1542328155.9,286047002.8,N
1542328175.8,286047002.1,N
1542328195.6,286047004.4,N
1542328215.4,286047001.6,N
1542328235.3,286047001.9,N
1542328255.1,286047002.6,N
1542328275.8,286047002.6,N
1542328295.7,286047000.5,N
1542328315.5,286047002.2,N
1542328335.4,286047001.8,N
1542328355.2,286046999.7,N
1542328375.0,286047002.7,N
1542328375.9,286047002.7,N
1542328395.8,286047004.1,N
1542328415.6,286047001.5,N
1542328435.4,286047004.2,N
1542328455.3,286047004.0,N
1542328475.1,286047001.5,N
1542328495.9,286047004.2,N
1542328515.7,286047003.6,N
1542328535.5,286047005.4,N
1542328555.4,286047005.5,N
1542328575.2,286047005.8,N
1542328595.0,286047007.4,Y
1542328596.0,286047007.4,P
1542328615.8,286047002.9,N
1542328635.6,286047005.9,N
1542328655.5,286047003.3,N
1542328675.3,286047003.0,N
1542328695.1,286047003.0,N
1542328715.9,286047003.4,N
1542328735.7,286047005.7,Y
1542328755.6,286047000.5,P
1542328775.4,286047001.1,N
1542328795.2,286046998.1,N
1542328815.1,286046998.6,N
1542328816.0,286046998.6,N
1542328835.8,286046998.2,N
1542328855.6,286047000.8,N
1542328875.5,286047000.9,N
1542328895.3,286047000.5,N
1542328915.2,286047000.3,N
1542328935.9,286047000.2,N
1542328955.7,286047000.3,N
1542328975.6,286047002.3,N
1542328995.4,286047002.5,N
1542329015.2,286047002.7,N
1542329035.1,286046999.8,N
1542329036.0,286046999.8,N
1542329055.8,286046998.2,N
1542329075.7,286047000.0,N
1542329095.5,286047002.7,N
1542329115.3,286047001.9,N
1542329135.2,286047002.6,N
1542329155.9,286047001.1,N
1542329175.7,286047001.2,N
1542329195.6,286047000.4,N
1542329215.4,286047000.3,N
1542329235.3,286046999.9,N
1542329255.1,286046998.2,N
1542329256.0,286046998.2,N
1542329275.8,286047000.8,N
1542329295.7,286046998.1,N
1542329315.5,286046999.0,N
1542329335.3,286046998.4,N
1542329355.2,286046999.7,N
1542329375.0,286046998.1,N
1542329375.9,286046998.1,N
1542329395.8,286047000.8,N
1542329415.6,286046998.2,N
1542329435.4,286047000.6,N
1542329455.3,286046999.9,N
1542329475.1,286047000.2,N
1542329495.8,286047000.3,N
1542329515.7,286047000.1,N
1542329535.5,286047000.6,N
1542329555.4,286046999.3,N
1542329575.2,286046997.8,N
1542329595.0,286046996.9,N
1542329595.9,286046996.9,N
1542329615.8,286046997.7,N
1542329635.6,286046996.7,N
1542329655.5,286046999.6,N
1542329675.3,286046998.4,N
1542329695.1,286046998.8,N
1542329715.9,286046998.4,N
1542329735.7,286046998.5,N
1542329755.5,286046998.8,N
1542329775.4,286046999.3,N
1542329795.2,286046999.0,N
1542329815.1,286046999.0,N
1542329816.0,286046999.0,N
1542329835.8,286046999.1,N
1542329855.6,286046999.6,N
1542329875.5,286046996.6,Y
1542329895.3,286046999.4,P
1542329915.2,286046998.3,P
1542329935.9,286046999.0,N
1542329955.7,286046998.7,Y
1542329975.6,286046998.5,P
1542329995.4,286047000.7,P
